• în România
  • Lista ţărilor
  • Pe 7 zile
  • Temperatura apei
  • Hartă satelitară
  • Meteo pe hartă
  • Widget-uri
  • user-avatar
    Intrare

    Meteo pe oră la Alho

    Astăzi, 19 August, Duminică

    Timp Temperatura Precipitaţii Vânt Presiune Umiditate
    00:00 +19°C° 0 mm 4 m/s 754 mmHg 85%
    01:00 +18°C° 0 mm 4 m/s 753 mmHg 87%
    02:00 +17°C° 0 mm 5 m/s 753 mmHg 88%
    03:00 +17°C° 0,1 mm 5 m/s 753 mmHg 88%
    04:00 +16°C° 0,1 mm 5 m/s 752 mmHg 88%
    05:00 +16°C° 0,1 mm 5 m/s 752 mmHg 88%
    06:00 +17°C° 0,1 mm 5 m/s 752 mmHg 83%
    07:00 +17°C° 0,1 mm 5 m/s 752 mmHg 78%
    08:00 +19°C° 0,1 mm 6 m/s 752 mmHg 73%
    09:00 +19°C° 1,2 mm 6 m/s 751 mmHg 80%
    10:00 +17°C° 1,2 mm 6 m/s 751 mmHg 86%
    11:00 +16°C° 1,2 mm 6 m/s 751 mmHg 93%
    12:00 +17°C° 1,1 mm 6 m/s 751 mmHg 90%
    13:00 +19°C° 1,1 mm 6 m/s 751 mmHg 87%
    14:00 +19°C° 1,1 mm 6 m/s 750 mmHg 84%
    15:00 +20°C° 0,3 mm 6 m/s 750 mmHg 79%
    16:00 +20°C° 0,3 mm 5 m/s 750 mmHg 73%
    17:00 +21°C° 0,3 mm 5 m/s 750 mmHg 67%
    18:00 +20°C° 0,1 mm 4 m/s 750 mmHg 70%
    19:00 +19°C° 0,1 mm 4 m/s 750 mmHg 72%
    20:00 +17°C° 0,1 mm 3 m/s 750 mmHg 74%
    21:00 +17°C° 0 mm 3 m/s 751 mmHg 72%
    22:00 +16°C° 0 mm 3 m/s 751 mmHg 71%
    23:00 +15°C° 0 mm 4 m/s 751 mmHg 69%

    Mâine, 20 August, Luni

    Timp Temperatura Precipitaţii Vânt Presiune Umiditate
    00:00 +14°C° 0 mm 3 m/s 752 mmHg 70%
    01:00 +13°C° 0 mm 3 m/s 752 mmHg 71%
    02:00 +12°C° 0 mm 3 m/s 752 mmHg 71%
    03:00 +13°C° 0 mm 2 m/s 752 mmHg 71%
    04:00 +13°C° 0 mm 2 m/s 752 mmHg 71%
    05:00 +13°C° 0 mm 2 m/s 753 mmHg 71%
    06:00 +15°C° 0 mm 1 m/s 752 mmHg 65%
    07:00 +16°C° 0 mm 1 m/s 752 mmHg 59%
    08:00 +19°C° 0 mm 1 m/s 752 mmHg 53%
    09:00 +20°C° 0 mm 1 m/s 752 mmHg 48%
    10:00 +21°C° 0 mm 1 m/s 752 mmHg 43%
    11:00 +22°C° 0 mm 1 m/s 752 mmHg 39%
    12:00 +21°C° 0 mm 2 m/s 751 mmHg 41%
    13:00 +21°C° 0 mm 2 m/s 750 mmHg 44%
    14:00 +21°C° 0 mm 3 m/s 750 mmHg 47%
    15:00 +20°C° 0,1 mm 3 m/s 749 mmHg 54%
    16:00 +19°C° 0,1 mm 3 m/s 749 mmHg 60%
    17:00 +18°C° 0,1 mm 3 m/s 748 mmHg 67%
    18:00 +17°C° 1,2 mm 3 m/s 747 mmHg 74%
    19:00 +16°C° 1,2 mm 3 m/s 747 mmHg 81%
    20:00 +14°C° 1,2 mm 3 m/s 746 mmHg 89%
    21:00 +14°C° 0,2 mm 3 m/s 745 mmHg 89%
    22:00 +14°C° 0,2 mm 3 m/s 745 mmHg 90%
    23:00 +14°C° 0,2 mm 4 m/s 744 mmHg 91%

    Poimâine, 21 August, Marţi

    Timp Temperatura Precipitaţii Vânt Presiune Umiditate
    00:00 +13°C° 0,6 mm 4 m/s 744 mmHg 91%
    01:00 +13°C° 0,6 mm 4 m/s 744 mmHg 91%
    02:00 +13°C° 0,6 mm 4 m/s 744 mmHg 91%
    03:00 +13°C° 0,7 mm 4 m/s 744 mmHg 90%
    04:00 +12°C° 0,7 mm 4 m/s 744 mmHg 90%
    05:00 +12°C° 0,7 mm 4 m/s 744 mmHg 89%
    06:00 +12°C° 0,3 mm 4 m/s 744 mmHg 87%
    07:00 +13°C° 0,3 mm 4 m/s 745 mmHg 86%
    08:00 +13°C° 0,3 mm 4 m/s 745 mmHg 84%
    09:00 +14°C° 0,3 mm 5 m/s 746 mmHg 79%
    10:00 +15°C° 0,3 mm 5 m/s 746 mmHg 74%
    11:00 +15°C° 0,3 mm 6 m/s 746 mmHg 69%
    12:00 +15°C° 0,3 mm 6 m/s 747 mmHg 69%
    13:00 +15°C° 0,3 mm 7 m/s 747 mmHg 69%
    14:00 +15°C° 0,3 mm 7 m/s 747 mmHg 68%
    15:00 +15°C° 0,2 mm 7 m/s 748 mmHg 65%
    16:00 +16°C° 0,2 mm 7 m/s 748 mmHg 61%
    17:00 +16°C° 0,2 mm 7 m/s 749 mmHg 57%
    18:00 +15°C° 0 mm 7 m/s 749 mmHg 58%
    19:00 +14°C° 0 mm 7 m/s 750 mmHg 59%
    20:00 +13°C° 0 mm 6 m/s 750 mmHg 59%
    21:00 +11°C° 0 mm 6 m/s 751 mmHg 60%
    22:00 +11°C° 0 mm 6 m/s 751 mmHg 61%
    23:00 +10°C° 0 mm 6 m/s 752 mmHg 61%

    22 August, Miercuri

    Timp Temperatura Precipitaţii Vânt Presiune Umiditate
    00:00 +10°C° 0 mm 6 m/s 752 mmHg 61%
    01:00 +10°C° 0 mm 6 m/s 753 mmHg 61%
    02:00 +9°C° 0 mm 6 m/s 753 mmHg 62%
    03:00 +9°C° 0 mm 6 m/s 754 mmHg 63%
    04:00 +9°C° 0 mm 6 m/s 754 mmHg 64%
    05:00 +9°C° 0 mm 5 m/s 755 mmHg 65%
    06:00 +10°C° 0 mm 5 m/s 755 mmHg 61%
    07:00 +12°C° 0 mm 5 m/s 756 mmHg 57%
    08:00 +13°C° 0 mm 5 m/s 756 mmHg 53%
    09:00 +14°C° 0 mm 5 m/s 756 mmHg 48%
    10:00 +15°C° 0 mm 5 m/s 756 mmHg 44%
    11:00 +16°C° 0 mm 5 m/s 757 mmHg 40%
    12:00 +18°C° 0 mm 4 m/s 757 mmHg 39%
    13:00 +18°C° 0 mm 4 m/s 756 mmHg 38%
    14:00 +19°C° 0 mm 4 m/s 756 mmHg 37%
    15:00 +19°C° 0 mm 4 m/s 756 mmHg 39%
    16:00 +19°C° 0 mm 4 m/s 756 mmHg 40%
    17:00 +19°C° 0 mm 4 m/s 756 mmHg 42%
    18:00 +17°C° 0 mm 4 m/s 755 mmHg 50%
    19:00 +15°C° 0 mm 4 m/s 755 mmHg 58%
    20:00 +14°C° 0 mm 4 m/s 755 mmHg 66%
    21:00 +14°C° 1,1 mm 4 m/s 754 mmHg 75%
    22:00 +14°C° 1,1 mm 4 m/s 754 mmHg 85%
    23:00 +13°C° 1,1 mm 5 m/s 753 mmHg 94%

    23 August, Joi

    Timp Temperatura Precipitaţii Vânt Presiune Umiditate
    00:00 +14°C° 1,5 mm 5 m/s 752 mmHg 94%
    01:00 +15°C° 1,5 mm 6 m/s 752 mmHg 94%
    02:00 +16°C° 1,5 mm 6 m/s 751 mmHg 95%
    03:00 +16°C° 1,3 mm 7 m/s 750 mmHg 94%
    04:00 +16°C° 1,3 mm 7 m/s 750 mmHg 93%
    05:00 +16°C° 1,3 mm 8 m/s 749 mmHg 93%
    06:00 +17°C° 0,8 mm 8 m/s 749 mmHg 91%
    07:00 +17°C° 0,8 mm 8 m/s 749 mmHg 90%
    08:00 +17°C° 0,8 mm 7 m/s 749 mmHg 89%
    09:00 +18°C° 0,3 mm 7 m/s 749 mmHg 83%
    10:00 +20°C° 0,3 mm 7 m/s 750 mmHg 77%
    11:00 +21°C° 0,3 mm 7 m/s 750 mmHg 70%
    12:00 +21°C° 0,1 mm 6 m/s 750 mmHg 65%
    13:00 +22°C° 0,1 mm 6 m/s 751 mmHg 60%
    14:00 +22°C° 0,1 mm 6 m/s 751 mmHg 55%
    15:00 +22°C° 0 mm 5 m/s 751 mmHg 56%
    16:00 +21°C° 0 mm 5 m/s 751 mmHg 57%
    17:00 +21°C° 0 mm 4 m/s 751 mmHg 59%
    18:00 +19°C° 0 mm 4 m/s 751 mmHg 65%
    19:00 +18°C° 0 mm 3 m/s 752 mmHg 72%
    20:00 +16°C° 0 mm 2 m/s 752 mmHg 79%
    21:00 +16°C° 0 mm 2 m/s 752 mmHg 81%
    22:00 +15°C° 0 mm 2 m/s 752 mmHg 84%
    23:00 +15°C° 0 mm 2 m/s 753 mmHg 86%

    24 August, Vineri

    Timp Temperatura Precipitaţii Vânt Presiune Umiditate
    00:00 +15°C° 0 mm 2 m/s 753 mmHg 88%
    01:00 +14°C° 0 mm 2 m/s 753 mmHg 89%
    02:00 +14°C° 0 mm 2 m/s 753 mmHg 91%
    03:00 +14°C° 0 mm 2 m/s 753 mmHg 91%
    04:00 +13°C° 0 mm 3 m/s 753 mmHg 92%
    05:00 +13°C° 0 mm 3 m/s 753 mmHg 92%
    06:00 +16°C° 0 mm 3 m/s 752 mmHg 88%
    07:00 +18°C° 0 mm 4 m/s 752 mmHg 84%
    08:00 +20°C° 0 mm 4 m/s 752 mmHg 79%
    09:00 +21°C° 0 mm 5 m/s 752 mmHg 73%
    10:00 +22°C° 0 mm 5 m/s 752 mmHg 67%
    11:00 +25°C° 0 mm 5 m/s 752 mmHg 61%
    12:00 +25°C° 0 mm 5 m/s 752 mmHg 59%
    13:00 +24°C° 0 mm 6 m/s 752 mmHg 58%
    14:00 +26°C° 0 mm 6 m/s 752 mmHg 56%
    15:00 +26°C° 0,1 mm 5 m/s 751 mmHg 57%
    16:00 +25°C° 0,1 mm 5 m/s 751 mmHg 58%
    17:00 +25°C° 0,1 mm 5 m/s 751 mmHg 59%
    18:00 +23°C° 0 mm 4 m/s 751 mmHg 64%
    19:00 +21°C° 0 mm 4 m/s 751 mmHg 69%
    20:00 +20°C° 0 mm 4 m/s 751 mmHg 75%
    21:00 +20°C° 0 mm 4 m/s 751 mmHg 75%
    22:00 +19°C° 0 mm 4 m/s 751 mmHg 76%
    23:00 +19°C° 0 mm 5 m/s 751 mmHg 76%
    Arată mai mult